Volver al catálogo

NANOSAT 1B

ActivoMilitarSSO
NORAD 35685·PAYLOAD·🇪🇸 Spain

Lanzado Jul 29, 2009 desde Baikonur Cosmodrome

Loading…

Próximos Pases (próximas 24 horas)

TLE

ActualizadoSource: Space-Track

Época: Sep 14, 2026, 03:31 UTC

1 35685U 09041E   26257.14668139  .00001542  00000-0  15009-3 0  9991
2 35685  98.1265  18.6993 0048141 230.5061 129.1896 14.93301885927692

Sigue NANOSAT 1B en tiempo real con AllMySat

Download on the App Store